STARLINK-32622, 61927

Orbit data source: Space-Track

STARLINK-32622, 61927 is a payload satellite owned by SpaceX/Seattle (US) in LEO that was launched on Mon, 11 Nov 2024 UTC via an FALCON 9 launch vehicle from the Air Force Eastern Test Range (AFETR). Payload-class satellites include a variety of spacecraft equipped with specific instruments for various scientific and technological missions. These include communications satellites like Starlink; space stations such as the ISS; scientific satellites like the Hubble; Earth observation satellites from companies like Planet Labs, Umbra, and HawkEye 360; GPS; miniature CubeSats for education and research; and military/defense satellites.

Loading next visibility...
Identifier
61927, 2024-207R
Orbit
LEO
Country
Flag of USUS
Related business
Manufacturer
SpaceX/Seattle
Mission
Operational Commercial Communications
Bus & Motor
STARLINK V2M, Unknown motor
Mass
730 kg wet, ~700 kg dry
Launch date (UTC)
2024-11-11 (1 year ago)
Launch vehicle
FALCON 9
Launch site
Air Force Eastern Test Range (AFETR)
Object type
Payload
Rocket body
Debris
Shape & HBR
Box + 2 Pan, 17.7 m
Radar Cross Section
33.884 m², Large (>1 m²)

Expand to show TLE details & history
Last TLE update: 17 hours ago

TLE from 17 hours ago
0 STARLINK-32622
1 61927U 24207R   26072.92071148  .00023089  00000-0  84511-3 0  9993
2 61927  43.0012 257.4587 0001971 262.8727  97.1901 15.27611779 75372
Epoch: 2026-03-13T22:05Z
TLE epoch observation values (Epoch: 2026-03-13T22:05:49.471Z)
Latitude
-0.00001°
Longitude
114.45324°
Altitude
482.899 km
Speed
7.626 km/s
True Right ascension
17h 09m 50s
True Declination
0° 00' 00"
Sunlit
Object was in daylight at epoch
Visualization orbit readout
Latitude
Unknown
Longitude
Unknown
Altitude
Unknown
Speed
Unknown
Apparent Right ascension
Unknown
Apparent Declination
Unknown
Sunlit
N/A
Visualization observer readout
Local Sidereal Time
19:17:24
Azimuth
Unknown
Elevation
Unknown
Doppler factor
Unknown
Orbital elements
Apogee altitude
486.252 km
Perigee altitude
483.546 km
Semi-major axis
6,863.036 km
Eccentricity
0.0002
Inclination
43.0012°
RAAN
257.4587°
Arg. of periapsis
262.8727°
True anomaly
97.21251°
Mean anomaly
97.1901°
Eccentric anomaly
97.2013°
Mean motion
3.81741 °/min
Orbital period
94.3 mins
BSTAR
0.00084511
Loading maneuver chart data...
Computing Atmospheric mass density...
Loading historical data...
Loading historical data...
Loading historical data...
Loading historical data...
Loading historical data...
Loading historical data...
Loading historical data...

Documentation

Showing up to 5 results
|